CDT,Max TemperatureF,Mean TemperatureF,Min TemperatureF,Max Dew PointF,MeanDew PointF,Min DewpointF,Max Humidity, Mean Humidity, Min Humidity, Max Sea Level PressureIn, Mean Sea Level PressureIn, Min Sea Level PressureIn, Max VisibilityMiles, Mean VisibilityMiles, Min VisibilityMiles, Max Wind SpeedMPH, Mean Wind SpeedMPH, Max Gust SpeedMPH,PrecipitationIn, CloudCover, Events, WindDirDegrees
2012-10-1,84,77,70,75,71,62,94,85,58,29.73,29.64,29.60,10,6,1,18,8,24,1.09,7,Rain,194
2012-10-2,80,70,60,62,60,57,93,71,50,30.03,29.87,29.74,10,10,7,9,5,,0.00,5,,277
2012-10-3,81,68,57,64,60,55,93,76,52,30.16,30.11,30.03,10,9,4,6,1,,0.00,0,,68
2012-10-4,84,73,62,68,64,60,96,83,51,30.25,30.20,30.15,10,6,0,7,2,,0.00,3,Fog,29
2012-10-5,87,74,62,72,67,61,100,87,61,30.16,30.11,30.01,10,6,0,6,1,,0.00,4,Fog,67
2012-10-6,90,78,66,72,66,61,100,82,40,30.04,30.00,29.91,10,5,0,8,2,,0.00,3,Fog,347
2012-10-7,82,70,60,65,61,53,93,79,56,30.10,30.04,29.99,10,9,6,13,6,20,0.00,3,,356
2012-10-8,80,66,55,57,54,50,84,67,46,30.12,30.07,30.02,10,10,10,9,5,,0.00,1,,350
2012-10-9,80,66,53,60,55,50,97,81,47,30.14,30.10,30.04,10,7,0,8,2,,0.00,3,Fog,21
2012-10-10,82,68,53,62,56,52,100,84,45,30.18,30.13,30.09,10,5,0,9,1,,0.00,3,Fog,353
2012-10-11,87,70,53,64,58,51,96,77,37,30.26,30.20,30.16,10,8,2,8,1,,0.00,0,,68
2012-10-12,88,70,53,66,59,51,93,75,43,30.28,30.22,30.19,10,8,3,6,1,,0.00,0,,330
2012-10-13,89,74,60,67,63,58,93,74,45,30.26,30.21,30.15,10,8,5,8,2,,0.00,0,,81
2012-10-14,87,73,62,68,64,61,96,79,49,30.19,30.12,30.02,10,8,1,7,2,,0.00,1,,143
2012-10-15,87,74,60,70,62,54,100,82,41,30.02,29.98,29.89,10,6,0,13,1,17,0.00,5,Fog,325
2012-10-16,80,64,48,55,49,42,89,63,28,30.01,29.94,29.89,10,10,4,8,4,16,0.00,0,,27
2012-10-17,81,68,54,60,55,48,93,69,36,29.94,29.88,29.82,10,10,9,12,2,,0.00,0,Rain,167
2012-10-18,75,66,57,67,63,55,100,91,73,29.89,29.86,29.78,10,5,0,14,2,31,0.95,5,Fog-Rain,21
2012-10-19,79,63,48,55,47,41,93,65,27,29.94,29.89,29.84,10,10,7,12,2,,0.00,0,,275
2012-10-20,79,60,43,53,46,41,93,70,28,30.02,29.97,29.91,10,10,9,14,2,,0.00,0,,297
2012-10-21,82,62,44,54,48,42,93,71,29,30.15,30.09,30.03,10,10,10,9,1,,0.00,0,,38
2012-10-22,82,65,48,58,52,45,97,74,36,30.19,30.13,30.08,10,10,9,7,2,,0.00,0,,67
2012-10-23,84,66,50,59,54,48,96,76,36,30.15,30.09,30.05,10,9,6,5,1,,0.00,0,,64
2012-10-24,84,68,53,63,57,51,93,76,44,30.14,30.07,30.02,10,9,6,9,1,,0.00,0,,60
2012-10-25,84,69,54,64,59,52,93,76,40,30.04,29.99,29.95,10,10,7,7,2,,0.00,1,,54
2012-10-26,86,72,59,67,61,56,93,72,43,29.99,29.93,29.88,10,10,8,12,3,16,0.00,0,,28
2012-10-27,68,60,53,63,53,47,94,79,65,29.94,29.89,29.86,10,10,8,16,10,22,0.00,7,,335
2012-10-28,66,59,50,46,43,37,80,63,42,30.02,29.92,29.87,10,10,10,20,11,31,0.00,4,,331
2012-10-29,63,52,42,36,33,29,74,51,29,30.07,30.01,29.93,10,10,10,20,11,28,0.00,0,,324
2012-10-30,66,52,39,37,32,26,82,49,25,30.03,29.98,29.91,10,10,10,17,9,28,0.00,0,,302
2012-10-31,77,56,37,55,43,35,93,62,30,30.06,30.00,29.95,10,10,8,12,3,18,0.00,1,,251